GW3157 Weather Reports


time (UTC)temp
C
wind
direction
speed
KPH
gust
KPH
rain 1hr
cm
rain 24hr
cm
rain mn
cm
humidity
%
barometer
mb
20260506165459 18 23 12.9 20.9 0.00 0.00 0.00 97 1011.3
20260506165000 18 60 14.5 24.1 0.00 0.00 0.00 97 1011.4
20260506164459 17 355 17.7 25.7 0.00 0.00 0.00 97 1011.0
20260506163500 18 45 14.5 19.3 0.00 0.00 0.00 97 1011.6
20260506163000 18 112 16.1 24.1 0.00 0.00 0.00 97 1011.9
20260506162500 17 35 16.1 22.5 0.00 0.00 0.00 97 1011.6
20260506162001 17 112 14.5 20.9 0.00 0.00 0.00 97 1011.8
20260506160500 17 33 16.1 24.1 0.00 0.00 0.00 97 1011.6
20260506155500 17 65 16.1 22.5 0.00 0.00 0.00 97 1011.7
20260506155002 17 18 14.5 22.5 0.00 0.00 0.00 97 1011.9
20260506154501 17 6 16.1 24.1 0.00 0.00 0.00 97 1012.0
20260506154001 17 35 16.1 24.1 0.00 0.00 0.00 97 1011.8
20260506153501 17 45 16.1 25.7 0.00 0.00 0.00 97 1011.9
20260506153002 17 11 16.1 25.7 0.00 0.00 0.00 97 1012.2
20260506152502 17 355 16.1 24.1 0.00 0.00 0.00 97 1012.4
20260506152001 17 4 16.1 24.1 0.00 0.00 0.00 97 1012.6
20260506151500 17 357 14.5 22.5 0.00 0.00 0.00 97 1012.8
20260506151001 17 35 14.5 20.9 0.00 0.00 0.00 97 1013.0
20260506150501 17 118 12.9 20.9 0.00 0.00 0.00 97 1013.2
20260506150006 17 47 12.9 20.9 0.00 0.00 0.00 97 1013.3
20260506145459 17 105 12.9 19.3 0.00 0.00 0.00 97 1013.5
20260506145000 17 14 12.9 19.3 0.00 0.00 0.00 96 1013.5
20260506144459 17 23 12.9 19.3 0.00 0.00 0.00 96 1013.7
20260506144001 17 54 11.3 19.3 0.00 0.00 0.00 96 1013.8
20260506143500 17 127 11.3 19.3 0.00 0.00 0.00 96 1014.0
20260506142500 18 150 9.7 17.7 0.00 0.00 0.00 97 1014.4
20260506142001 18 6 11.3 19.3 0.00 0.00 0.00 97 1014.4
20260506141500 18 104 12.9 20.9 0.00 0.00 0.00 97 1014.3
20260506141002 17 9 12.9 20.9 0.00 0.00 0.00 97 1014.4
20260506140005 17 25 12.9 17.7 0.00 0.00 0.00 97 1014.2
20260506135500 17 26 12.9 19.3 0.00 0.00 0.00 97 1014.2
20260506135001 17 55 12.9 19.3 0.00 0.00 0.00 97 1014.4
20260506134459 17 14 12.9 19.3 0.00 0.00 0.00 97 1014.4
20260506134000 17 360 12.9 19.3 0.00 0.00 0.00 97 1014.4
20260506133459 17 18 11.3 17.7 0.00 0.00 0.00 97 1014.4
20260506133000 17 26 11.3 17.7 0.00 0.00 0.00 97 1014.8
20260506132503 17 21 9.7 17.7 0.00 0.00 0.00 97 1015.1
20260506131500 17 28 8.0 14.5 0.00 0.00 0.00 97 1015.4
20260506131000 17 33 8.0 14.5 0.00 0.00 0.00 97 1015.4
20260506130459 17 70 8.0 16.1 0.00 0.00 0.00 97 1015.3
20260506130007 17 51 9.7 16.1 0.00 0.00 0.00 97 1015.4
20260506125001 17 18 11.3 17.7 0.00 0.00 0.00 97 1015.4
20260506124500 17 139 11.3 17.7 0.00 0.00 0.00 97 1015.5
20260506124000 17 79 11.3 17.7 0.00 0.00 0.00 97 1015.3
20260506122459 17 125 9.7 16.1 0.00 0.00 0.00 97 1014.9
20260506121459 17 40 8.0 12.9 0.00 0.00 0.00 97 1014.7
20260506121001 17 102 6.4 12.9 0.00 0.00 0.00 97 1014.7
20260506120459 17 145 9.7 14.5 0.00 0.00 0.00 97 1014.7
20260506120005 17 46 11.3 17.7 0.00 0.00 0.00 97 1014.5
20260506115500 17 83 11.3 16.1 0.00 0.00 0.00 97 1014.6
20260506114500 17 12 11.3 19.3 0.00 0.00 0.00 97 1014.6
20260506114000 17 110 12.9 19.3 0.00 0.00 0.00 97 1014.8
20260506113500 17 111 14.5 20.9 0.00 0.00 0.00 97 1014.8
20260506112459 17 74 14.5 20.9 0.00 0.00 0.00 97 1015.2
20260506112000 17 23 12.9 22.5 0.00 0.00 0.00 97 1015.1
20260506111000 17 356 12.9 19.3 0.00 0.00 0.00 97 1015.1
20260506110459 17 21 12.9 19.3 0.00 0.00 0.00 97 1014.9
20260506110004 17 66 14.5 24.1 0.00 0.00 0.00 97 1014.9
20260506105500 17 24 16.1 24.1 0.00 0.00 0.00 97 1015.0
20260506105000 17 9 14.5 24.1 0.00 0.00 0.00 97 1015.0
20260506103459 17 55 12.9 20.9 0.00 0.00 0.00 97 1014.9
20260506103000 17 138 12.9 17.7 0.00 0.00 0.00 97 1014.9
20260506102500 17 76 12.9 17.7 0.00 0.00 0.00 97 1014.9
20260506102000 17 9 11.3 17.7 0.00 0.00 0.00 97 1015.0
20260506101459 17 141 11.3 17.7 0.00 0.00 0.00 97 1014.9
20260506101000 17 134 11.3 17.7 0.00 0.00 0.00 97 1014.8
20260506100500 17 135 11.3 16.1 0.00 0.00 0.00 97 1015.0
20260506100007 17 51 11.3 16.1 0.00 0.00 0.00 97 1014.9
20260506095001 17 120 6.4 11.3 0.00 0.00 0.00 97 1014.9
20260506094459 17 137 8.0 11.3 0.00 0.00 0.00 97 1014.8
20260506094000 17 66 8.0 12.9 0.00 0.00 0.00 97 1014.8
20260506093500 17 133 9.7 14.5 0.00 0.00 0.00 97 1014.6
20260506093001 17 136 9.7 14.5 0.00 0.00 0.00 97 1014.5
20260506092459 17 62 8.0 12.9 0.00 0.00 0.00 97 1014.5
20260506092000 17 112 8.0 12.9 0.00 0.00 0.00 96 1014.5
20260506091000 17 127 4.8 8.0 0.00 0.00 0.00 96 1014.3
20260506090459 17 33 4.8 8.0 0.00 0.00 0.00 96 1014.3
20260506090005 17 140 4.8 9.7 0.00 0.00 0.00 96 1014.2
20260506085459 17 141 4.8 11.3 0.00 0.00 0.00 96 1014.3
20260506085000 17 132 4.8 11.3 0.00 0.00 0.00 96 1014.3
20260506084459 17 144 4.8 8.0 0.00 0.00 0.00 96 1014.2
20260506084000 17 138 4.8 6.4 0.00 0.00 0.00 96 1013.9
20260506083500 17 97 4.8 6.4 0.00 0.00 0.00 96 1014.2
20260506083000 17 120 3.2 4.8 0.00 0.00 0.00 96 1014.3
20260506082501 17 51 3.2 4.8 0.00 0.00 0.00 96 1014.2
20260506082000 17 88 3.2 6.4 0.00 0.00 0.00 96 1014.4
20260506081502 17 138 4.8 8.0 0.00 0.00 0.00 95 1014.5
20260506081000 17 120 4.8 8.0 0.00 0.00 0.00 95 1014.3
20260506080500 17 42 4.8 8.0 0.00 0.00 0.00 95 1014.3
20260506073459 17 97 4.8 8.0 0.00 0.00 0.00 94 1014.5
20260506072500 18 9 3.2 6.4 0.00 0.00 0.00 93 1014.3
20260506072000 18 100 3.2 6.4 0.00 0.00 0.00 93 1014.2
20260506071459 18 153 1.6 4.8 0.00 0.00 0.00 93 1014.2
20260506071001 18 155 1.6 3.2 0.00 0.00 0.00 93 1014.4
20260506070459 18 156 1.6 3.2 0.00 0.00 0.00 93 1014.4
20260506062000 18 350 4.8 9.7 0.00 0.00 0.00 93 1014.9
20260506061500 18 353 6.4 9.7 0.00 0.00 0.00 93 1014.9
20260506061001 18 355 6.4 9.7 0.00 0.00 0.00 93 1015.0
20260506060459 18 350 6.4 9.7 0.00 0.00 0.00 93 1015.2
20260506050501 18 351 4.8 9.7 0.00 0.00 0.00 92 1015.9
20260506045000 18 344 4.8 11.3 0.00 0.00 0.00 91 1015.7
20260506044459 18 345 6.4 12.9 0.00 0.00 0.00 91 1015.8
20260506044000 18 347 6.4 14.5 0.00 0.00 0.00 91 1015.9
20260506043459 18 346 6.4 14.5 0.00 0.00 0.00 91 1015.7
20260506043001 18 345 6.4 12.9 0.00 0.00 0.00 91 1015.3
20260506042500 18 345 4.8 12.9 0.00 0.00 0.00 92 1014.9
20260506042000 18 353 3.2 12.9 0.00 0.00 0.00 92 1015.0
20260506041500 18 353 4.8 11.3 0.00 0.00 0.00 92 1015.0
20260506040500 18 357 4.8 11.3 0.00 0.00 0.00 93 1015.2
20260506035000 17 2 8.0 11.3 0.00 0.00 0.00 93 1015.3
20260506034459 17 38 8.0 11.3 0.00 0.00 0.00 94 1015.2
20260506033500 17 128 8.0 12.9 0.00 0.00 0.00 94 1015.4
20260506032459 17 73 8.0 11.3 0.00 0.00 0.00 94 1015.5
20260506032000 17 26 8.0 11.3 0.00 0.00 0.00 94 1015.5
20260506031500 17 59 8.0 11.3 0.00 0.00 0.00 94 1015.5
20260506031001 17 5 8.0 11.3 0.00 0.00 0.00 93 1015.3
20260506030459 17 120 6.4 11.3 0.00 0.00 0.00 93 1015.2
20260506030009 17 52 4.8 9.7 0.00 0.00 0.00 93 1015.4
20260506025001 17 56 3.2 4.8 0.00 0.00 0.00 93 1015.4
20260506024459 17 42 3.2 4.8 0.00 0.00 0.00 93 1015.6
20260506024000 17 101 1.6 3.2 0.00 0.00 0.00 93 1015.6
20260506023500 17 101 1.6 3.2 0.00 0.00 0.00 92 1015.4
20260506022959 17 101 3.2 4.8 0.00 0.00 0.00 92 1015.5
20260506022500 17 42 3.2 6.4 0.00 0.00 0.00 92 1015.5
20260506022000 17 28 1.6 6.4 0.00 0.00 0.00 91 1015.4
20260506021459 17 137 1.6 4.8 0.00 0.00 0.00 91 1015.6
20260506021002 17 139 3.2 4.8 0.00 0.00 0.00 90 1015.5
20260506020458 17 128 3.2 4.8 0.00 0.00 0.00 90 1015.5
20260506020007 17 94 1.6 4.8 0.00 0.00 0.00 90 1015.5
20260506015501 17 130 0.0 0.0 0.00 0.00 0.00 89 1015.6
20260506015003 17 26 0.0 0.0 0.00 0.00 0.00 90 1015.5
20260506014503 17 26 0.0 0.0 0.00 0.00 0.00 90 1015.6
20260506014003 17 26 0.0 0.0 0.00 0.00 0.00 90 1015.8
20260506013503 17 26 0.0 1.6 0.00 0.00 0.00 89 1015.6
20260506013002 17 26 1.6 4.8 0.00 0.00 0.00 89 1015.2
20260506012502 17 21 3.2 8.0 0.00 0.00 0.00 89 1014.8
20260506012004 17 7 4.8 8.0 0.00 0.00 0.00 88 1014.7
20260506011501 18 42 3.2 6.4 0.00 0.00 0.00 87 1014.6
20260506011002 18 2 3.2 4.8 0.00 0.00 0.00 89 1014.6
20260506010501 17 357 3.2 4.8 0.00 0.00 0.00 90 1014.7
20260506005501 17 22 3.2 4.8 0.00 0.00 0.00 91 1014.8
20260506005002 17 23 3.2 4.8 0.00 0.00 0.00 91 1015.0
20260506004502 17 8 4.8 8.0 0.00 0.00 0.00 91 1015.2
20260506004002 17 45 6.4 11.3 0.00 0.00 0.00 92 1015.4
20260506003004 17 22 8.0 12.9 0.00 0.00 0.00 92 1015.4
20260506002502 17 16 8.0 11.3 0.00 0.00 0.00 92 1015.5
20260506001502 17 34 9.7 12.9 0.00 0.00 0.00 92 1015.3
20260506001020 17 20 8.0 11.3 0.00 0.00 0.00 92 1015.5
20260506000501 17 97 8.0 11.3 0.00 0.00 0.00 92 1015.4
20260505235504 17 85 8.0 12.9 0.00 0.00 0.00 92 1015.3
20260505235000 17 14 9.7 16.1 0.00 0.00 0.00 92 1015.2
20260505234500 17 26 9.7 16.1 0.00 0.00 0.00 91 1015.2
20260505234001 17 65 9.7 14.5 0.00 0.00 0.00 91 1015.3
20260505233501 17 78 8.0 12.9 0.00 0.00 0.00 91 1015.4
20260505232502 17 102 8.0 12.9 0.00 0.00 0.00 91 1015.3
20260505232001 17 92 6.4 12.9 0.00 0.00 0.00 92 1015.3
20260505231002 17 113 6.4 9.7 0.00 0.00 0.00 91 1015.3
20260505230502 17 113 6.4 9.7 0.00 0.00 0.00 91 1015.2
20260505230007 18 130 6.4 9.7 0.00 0.00 0.00 90 1015.4
20260505225502 18 87 4.8 9.7 0.00 0.00 0.00 90 1015.6
20260505225004 18 142 4.8 8.0 0.00 0.00 0.00 89 1015.8
20260505224503 18 123 6.4 9.7 0.00 0.00 0.00 88 1015.5
20260505223501 18 31 6.4 9.7 0.00 0.00 0.00 87 1015.5
20260505222501 18 47 4.8 8.0 0.00 0.00 0.00 86 1015.5
20260505221003 18 74 4.8 8.0 0.00 0.00 0.00 86 1015.3
20260505220501 18 73 4.8 8.0 0.00 0.00 0.00 86 1015.3
20260505220008 18 95 4.8 8.0 0.00 0.00 0.00 86 1015.3
20260505215500 18 48 3.2 6.4 0.00 0.00 0.00 85 1015.1
20260505215002 18 29 3.2 8.0 0.00 0.00 0.00 85 1015.1
20260505214500 18 71 4.8 11.3 0.00 0.00 0.00 84 1015.0
20260505214001 19 21 4.8 11.3 0.00 0.00 0.00 82 1015.1
20260505213001 19 50 3.2 4.8 0.00 0.00 0.00 81 1015.2
20260505212500 19 41 3.2 4.8 0.00 0.00 0.00 81 1015.2
20260505212002 18 37 3.2 4.8 0.00 0.00 0.00 81 1015.2
20260505211501 18 9 4.8 6.4 0.00 0.00 0.00 83 1015.2
20260505211002 19 35 3.2 4.8 0.00 0.00 0.00 83 1015.2
20260505210501 18 38 3.2 4.8 0.00 0.00 0.00 83 1015.2
20260505210012 18 34 3.2 6.4 0.00 0.00 0.00 83 1015.2
20260505205501 19 26 4.8 9.7 0.00 0.00 0.00 84 1015.3
20260505205003 19 7 6.4 9.7 0.00 0.00 0.00 82 1015.3
20260505204500 19 49 4.8 8.0 0.00 0.00 0.00 81 1015.3
20260505204003 20 59 3.2 8.0 0.00 0.00 0.00 80 1015.3
20260505203003 19 20 3.2 4.8 0.00 0.00 0.00 79 1015.2
20260505202502 19 25 3.2 6.4 0.00 0.00 0.00 80 1015.0
20260505202002 19 39 4.8 6.4 0.00 0.00 0.00 81 1015.0
20260505201501 19 16 4.8 6.4 0.00 0.00 0.00 81 1014.9
20260505201002 19 37 3.2 6.4 0.00 0.00 0.00 81 1014.8
20260505200006 20 71 3.2 4.8 0.00 0.00 0.00 80 1015.0
20260505195501 20 70 3.2 4.8 0.00 0.00 0.00 80 1015.0
20260505195012 20 68 3.2 4.8 0.00 0.00 0.00 79 1015.1
20260505194501 20 68 4.8 6.4 0.00 0.00 0.00 78 1015.0
20260505194002 20 49 3.2 6.4 0.00 0.00 0.00 77 1015.0
20260505193501 20 47 1.6 4.8 0.00 0.00 0.00 75 1015.1
20260505193001 20 85 0.0 0.0 0.00 0.00 0.00 72 1015.2
20260505192502 21 164 0.0 0.0 0.00 0.00 0.00 72 1015.3
20260505191501 21 165 0.0 0.0 0.00 0.00 0.00 68 1015.3
20260505191002 21 165 0.0 0.0 0.00 0.00 0.00 69 1015.4
20260505190501 21 165 0.0 0.0 0.00 0.00 0.00 70 1015.4
20260505190005 21 165 0.0 0.0 0.00 0.00 0.00 68 1015.3
20260505185001 22 160 0.0 0.0 0.00 0.00 0.00 67 1014.9
20260505184500 22 113 0.0 0.0 0.00 0.00 0.00 70 1014.9
20260505184002 22 113 0.0 0.0 0.00 0.00 0.00 69 1014.7
20260505183500 22 113 0.0 0.0 0.00 0.00 0.00 68 1014.7
20260505183001 22 113 0.0 1.6 0.00 0.00 0.00 68 1014.7
20260505182500 21 112 0.0 3.2 0.00 0.00 0.00 67 1014.6
20260505181501 22 177 0.0 0.0 0.00 0.00 0.00 68 1014.6
20260505181001 21 178 0.0 0.0 0.00 0.00 0.00 69 1014.6
20260505180501 21 174 0.0 0.0 0.00 0.00 0.00 70 1014.7
20260505180005 21 173 0.0 0.0 0.00 0.00 0.00 71 1014.7
20260505175501 20 173 0.0 0.0 0.00 0.00 0.00 71 1014.7
20260505175002 20 173 0.0 0.0 0.00 0.00 0.00 72 1014.7
20260505174501 20 173 0.0 0.0 0.00 0.00 0.00 73 1014.7
20260505174002 20 173 0.0 0.0 0.00 0.00 0.00 74 1014.8
20260505173502 20 174 0.0 0.0 0.00 0.00 0.00 76 1014.8
20260505172501 20 173 1.6 4.8 0.00 0.00 0.00 74 1014.8
20260505171500 21 173 1.6 6.4 0.00 0.00 0.00 73 1014.7
20260505170500 21 315 0.0 1.6 0.00 0.00 0.00 74 1014.6
20260505170008 21 329 0.0 4.8 0.00 0.00 0.00 72 1014.6